Aéroport de Guadeloupe - Pôle Caraïbes, Guadeloupe

22:29 AST le 02 septembre 2015 (GMT -0400)
Le Raizet | | Change Station
CLOSE
Current Station
Aéroport
Location: Le Raizet Airport,
Altitude: 26 ft
Stations météo à proximité

Alt. 26 ft 16.27 °N, 61.53 °W | Updated 29 minutes ago

Clear
Ciel dégagé
79 ° F
Paraît 79 ° F
N
2
Vent Variable Vent de SE

Aujourd'hui
Haut(e) -- | Bas -- ° F
--% Risque de précip.
Hier
Haut(e) -- | Bas -- ° F
Precip. -- pouce
5:53 AM 6:18 PM
Lune gibbeuse décroissante, 75% visible
Pression 30.01 pouce
Visibilité 6.2 Miles terrestres
Nuages
Point de rosée 75 ° F
Humidité 89%
Précipitations 0.00 pouce
Profondeur de la couche neigeuse Non disponible.
UV Non disponible.
Pollen Non disponible.
Qualité de l'air Non disponible.
Flu Activity Non disponible.
METAR TFFR 030200Z AUTO 13002KT 9999 NCD 26/24 Q1016
Pression 30.01 pouce
Visibilité 6.2 Miles terrestres
Nuages
Point de rosée 75 ° F
Humidité 89%
Précipitations 0.00 pouce
Profondeur de la couche neigeuse Non disponible.
UV Non disponible.
Pollen Non disponible.
Qualité de l'air Non disponible.
Flu Activity Non disponible.
METAR TFFR 030200Z AUTO 13002KT 9999 NCD 26/24 Q1016

10-Day Weather Forecast

×

Almanac

Astronomie

Sep. 02, 2015 Lever Coucher
Temps réel
Crépuscule civil
Crépuscule nautique
Crépuscule astronomique
Lune
Durée de lumière visible
Longueur du jour
Tomorrow will be .
, % of the Moon is Illuminated

Extrêmes aujourd'hui

Country Highs Country Lows

Community

WunderPhotos

Upload Photos

1,851,877 Photos téléchargées !

WunderBlogs® & News

Nearby

Qualité de l'air

  Qualité de l'air Indice de la qualité de l'air Polluant
Not available.

Épaisseur de neige

Station Depth Altitude

Activité sismique

Ville Distance Mag. Time & Date
Minimum magnitude displayed is 2.5.

Températures des eaux côtières

Lieu Température

Stations

Stations météo à proximité

Emplacement de la station Température Refroidissement éolien Point de rosée Humidité Vent Precip. Alt. Mise à jour Type